TOP > 外国特許検索

外国特許検索

表示件数 詳細検索
特許の状態
出願国

リセット

該当件数 4833件

No. 出願番号
公報番号
出願国
発明の名称
掲載日
更新日
データ提供機関
201 2013JP004063 WO 2014017027 世界知的所有権機関(WIPO) EUROPIUM DIKETONE CHELATE COMPOUND AND FLUORESCENT PENETRANT METHOD FOR INORGANIC MATERIAL OR METALLIC MATERIAL 2014/03/18 2015/07/15 九州工業大学
202 2013JP064943 WO 2013180186 世界知的所有権機関(WIPO) SEMICONDUCTOR DEVICE FOR HIGH-VOLTAGE INSULATED GATE POWER, AND METHOD FOR MANUFACTURING SAME コモンズ 新技術説明会 2014/06/18 2015/07/29 九州工業大学
203 2013JP071952 WO 2014038364 世界知的所有権機関(WIPO) ELECTROMAGNETIC WAVE IDENTIFICATION METHOD AND IDENTIFICATION DEVICE 新技術説明会 2014/09/26 2015/07/15 九州工業大学
204 2013JP081163 WO 2014080905 世界知的所有権機関(WIPO) PULSE DETECTION DEVICE AND PULSE DETECTION METHOD 新技術説明会 2014/09/26 2015/07/15 九州工業大学
205 2013JP081624 WO 2014084162 世界知的所有権機関(WIPO) SIGNAL NOISE ELIMINATOR AND METHOD AND PROGRAM THEREFOR 新技術説明会 2014/11/19 2015/07/15 九州工業大学
206 2014JP076343 WO 2015068503 世界知的所有権機関(WIPO) POLYMER, METHOD FOR PRODUCING SAME, AND ADHESIVE COMPOSITION 2014/12/09 2015/07/15 九州工業大学
207 2013JP083320 WO 2014112257 世界知的所有権機関(WIPO) NON-CONTACT DISCHARGE TEST METHOD AND DEVICE 新技術説明会 2015/02/09 2015/07/22 九州工業大学
208 2013JP069536 WO 2014014062 世界知的所有権機関(WIPO) MOVABLE CAPSULE DEVICE AND METHOD FOR CONTROLLING SAME 新技術説明会 2015/02/26 2015/07/15 九州工業大学
209 2014JP065259 WO 2014196653 世界知的所有権機関(WIPO) SIGNAL CONTROL APPARATUS 2015/04/03 2015/07/22 九州工業大学
210 2013JP082668 WO 2014174719 世界知的所有権機関(WIPO) DISCHARGE OCCURRENCE STATUS EVALUATION DEVICE AND EVALUATION METHOD 新技術説明会 2015/04/15 2015/07/22 九州工業大学
211 2014JP071626 WO 2015033768 世界知的所有権機関(WIPO) SUPERCONDUCTING CABLE 2015/07/02 2015/07/15 九州工業大学
212 2015JP057828 WO 2015141657 世界知的所有権機関(WIPO) SOUND WAVE SENSOR 2016/04/20 2016/04/20 九州工業大学
213 2015JP073391 WO 2016027858 世界知的所有権機関(WIPO) METHOD FOR PRODUCING LAYERED NANO THIN-FILM COMPRISING METAL OXIDE FILM AND POLYMER COMPOUND FILM, METHOD FOR PRODUCING METAL OXIDE NANO THIN-FILM, AND LAYERED NANO THIN-FILM COMPRISING METAL OXIDE FILM AND POLYMER COMPOUND FILM 新技術説明会 2016/05/23 2016/05/23 九州工業大学
214 2016JP071542 WO 2017014297 世界知的所有権機関(WIPO) ROGOWSKI CURRENT SENSOR 2017/03/29 2019/04/22 九州工業大学
215 2015JP059671 WO 2015152062 世界知的所有権機関(WIPO) REFORMED MAGNETIC FLUID, AND GRIPPING MECHANISM AND GRIPPING DEVICE WHICH USE REFORMED MAGNETIC FLUID コモンズ 新技術説明会 2015/12/16 2015/12/16 九州工業大学
216 2016JP073445 WO 2017026483 世界知的所有権機関(WIPO) SEMICONDUCTOR INSPECTION DEVICE コモンズ 新技術説明会 実績あり 2017/10/31 2019/04/22 九州工業大学
217 2018JP008943 WO 2018180330 世界知的所有権機関(WIPO) EMOTION ESTIMATING APPARATUS コモンズ 新技術説明会 2018/10/30 2019/01/30 九州工業大学
218 2019JP000798 WO 2019139153 世界知的所有権機関(WIPO) PEROVSKITE COMPOUND AND LIGHT CONVERSION ELEMENT IN WHICH SAME IS USED 2019/10/24 2019/10/24 九州工業大学
219 2005JP016289 WO 2006/030664 世界知的所有権機関(WIPO) NONCONTACT METHOD FOR MEASURING PITCH OF GEAR TEETH AND SCREW 2006/07/28 2008/09/02 京都大学
220 2005JP024100 WO 2006/073117 世界知的所有権機関(WIPO) OPTICAL SENSOR AND PROCESS FOR PRODUCING THE SAME 新技術説明会 2007/08/16 2008/09/03 京都大学
221 2007JP062301 WO 2007/148682 世界知的所有権機関(WIPO) METHOD OF PRODUCING BIOACTIVE COMPLEX MATERIAL 2008/02/08 2008/10/16 京都大学
222 2007JP051575 WO 2008/018188 世界知的所有権機関(WIPO) EIGEN VALUE DECOMPOSING DEVICE AND EIGEN VALUE DECOMPOSING METHOD 新技術説明会 2008/10/16 2008/10/14 京都大学
223 2008JP062733 WO 2009/014026 世界知的所有権機関(WIPO) SUCTION DEVICE, SUCTION SYSTEM, AND SUCTION METHOD 2009/05/15 2009/05/08 京都大学
224 2008JP060759 WO 2008/153094 世界知的所有権機関(WIPO) METHOD FOR PRODUCTION OF ALKALOID 2009/05/15 2009/05/08 京都大学
225 2008JP058438 WO 2008/139980 世界知的所有権機関(WIPO) NOVEL LIVING RADICAL POLYMERIZATION METHOD USING PHOSPHORUS COMPOUND OR NITROGEN COMPOUND AS CATALYST 新技術説明会 2009/05/15 2009/05/08 京都大学
226 2008JP056137 WO 2008/123432 世界知的所有権機関(WIPO) DEVICE AND METHOD FOR ACQUIRING A FIELD BY MEASUREMENT 2009/05/15 2009/05/11 京都大学
227 2007JP064005 WO 2008/010464 世界知的所有権機関(WIPO) MICROFIBRILLATED CELLULOSE HAVING CELLULOSE TYPE-II CRYSTALLINE STRUCTURE, AND MOLDED ARTICLE CONTAINING THE MICROFIBRILLATED CELLULOSE 2009/05/15 2009/05/11 京都大学
228 2006JP316054 WO 2007/020928 世界知的所有権機関(WIPO) METHOD FOR STABILIZING CALCIUM PHOSPHATE FINE PARTICLES, PROCESS FOR PRODUCTION OF CALCIUM PHOSPHATE FINE PARTICLES BY UTILIZING THE METHOD, AND USE THEREOF 2009/05/15 2009/05/11 京都大学
229 2005JP021299 WO 2006/123447 世界知的所有権機関(WIPO) ELECTRON BEAM EXPOSURE DEVICE 2009/05/15 2009/05/11 京都大学
230 2005JP020695 WO 2006/080126 世界知的所有権機関(WIPO) LITHIUM CELL AND METHOD FOR MANUFACTURE THEREOF 新技術説明会 2009/05/15 2009/05/11 京都大学
231 2009JP062974 WO 2010/029810 世界知的所有権機関(WIPO) STRUCTURE OPTIMIZATION DEVICE, STRUCTURE OPTIMIZATION METHOD, AND STRUCTURE OPTIMIZATION PROGRAM 2010/07/16 2010/07/13 京都大学
232 2009JP065694 WO 2010/027093 世界知的所有権機関(WIPO) CATALYST FOR LIVING RADICAL POLYMERIZATION 2010/07/16 2010/07/13 京都大学
233 2009JP054588 WO 2010/001640 世界知的所有権機関(WIPO) CATALYST FOR CROSS-COUPLING REACTION, AND PROCESS FOR PRODUCTION OF AROMATIC COMPOUND USING THE SAME 新技術説明会 2010/07/16 2010/07/13 京都大学
234 2009JP052115 WO 2009/136510 世界知的所有権機関(WIPO) NOVEL LIVING RADICAL POLYMERIZATION METHOD WHEREIN ALCOHOL IS USED AS CATALYST 2010/07/16 2010/07/13 京都大学
235 2007JP060430 WO 2007/136057 世界知的所有権機関(WIPO) MICROCHANNEL FOR SEPARATING BLOOD PLASMA 2010/07/16 2010/07/13 京都大学
236 2006JP304093 WO 2006/095648 世界知的所有権機関(WIPO) THREE-DIMENSIONAL PHOTONIC CRYSTAL AND METHOD FOR PRODUCING THE SAME 2010/11/25 2010/12/15 京都大学
237 2008JP065420 WO 2009028613 世界知的所有権機関(WIPO) CURVATURE DISTRIBUTION CRYSTAL LENS AND X-RAY REFLECTANCE MEASURING INSTRUMENT 2011/04/07 2019/04/24 京都大学
238 2009JP060950 WO 2009/154201 世界知的所有権機関(WIPO) CELL ADHESION PROMOTING AGENT AND METHOD OF PROMOTING CELL ADHESION 新技術説明会 2011/05/06 2011/05/25 京都大学
239 2010JP052293 WO 2010/095622 世界知的所有権機関(WIPO) MUSIC ACOUSTIC SIGNAL GENERATING SYSTEM 2011/05/06 2011/05/25 京都大学
240 2010JP053560 WO 2010/101221 世界知的所有権機関(WIPO) NONDESTRUCTIVE EXAMINATION SYSTEM USING NUCLEAR RESONANCE FLUORESCENCE SCATTERING 2011/05/06 2011/05/25 京都大学
241 2010JP050173 WO 2010/125832 世界知的所有権機関(WIPO) METHOD FOR ANALYZING MOVEMENT OF OBJECT TO BE IMAGED BY MEANS OF TAGGED MR IMAGES AND MRI DEVICE 2011/06/27 2011/06/27 京都大学
242 2010JP060494 WO 2010/150756 世界知的所有権機関(WIPO) SCANNING PROBE MICROSCOPE AND PROBE PROXIMITY DETECTION METHOD THEREFOR 2011/06/27 2011/06/27 京都大学
243 2010JP003722 WO 2010/140372 世界知的所有権機関(WIPO) POLYMERIZATION INITIATOR FOR LIVING RADICAL POLYMERIZATION 2011/06/27 2011/06/27 京都大学
244 2010JP003181 WO 2011/016166 世界知的所有権機関(WIPO) CATALYST FOR LIVING RADICAL POLYMERIZATION AND POLYMERIZATION METHOD 2011/06/27 2011/06/27 京都大学
245 2011JP050616 WO 2011083881 世界知的所有権機関(WIPO) VACCINE FOR TREATMENT OF TAUTOPATHY 2011/09/15 2019/04/24 京都大学
246 2010JP064193 WO 2011/021712 世界知的所有権機関(WIPO) SUBSTRATUM FOR SUPPLYING CELLS/TISSUES, CELL/TISSUE SUPPLY MATERIAL AND PROCESS FOR PRODUCTION THEREOF, METHOD FOR REGENERATION OF TISSUES, AND PROCESS FOR PRODUCTION OF POROUS MATERIAL 2011/11/09 2011/12/02 京都大学
247 2010JP066900 WO 2011/040434 世界知的所有権機関(WIPO) CYCLOPARA(HETERO)ARYLENE COMPOUND AND METHOD FOR PRODUCING SAME 実績あり 2011/11/09 2011/12/02 京都大学
248 2010JP068454 WO 2011/049113 世界知的所有権機関(WIPO) ELECTROCHEMICAL DEVICE USING SOLID POLYMER ELECTROLYTE USING FINE POLYMER COMPOSITE PARTICLES 2011/12/28 2011/12/28 京都大学
249 99183809 8378044 アメリカ合衆国 Living radical polymerization method using alcohol as catalyst 2012/01/06 2018/07/19 京都大学
250 99980509 8685976 アメリカ合衆国 Cell adhesion promoting agent and method of promoting cell adhesion 2012/01/06 2018/07/19 京都大学
251 2010JP071934 WO 2011071050 世界知的所有権機関(WIPO) STOMATE-INCREASING AGENT, POLYPEPTIDE, METHOD FOR INCREASING NUMBER AND/OR DENSITY OF STOMATES IN PLANT, AND METHOD FOR INCREASING YIELD OF PLANT 実績あり 2012/03/26 2019/04/24 京都大学
252 2011JP068157 WO 2012020759 世界知的所有権機関(WIPO) VARIANT REVERSE TRANSCRIPTASE 2012/05/16 2019/04/24 京都大学
253 2011JP071891 WO 2012043477 世界知的所有権機関(WIPO) LINKER FOR UNIMOLECULAR FRET BIOSENSOR BASED ON PRINCIPLE OF FLUORESCENCE RESONANCE ENERGY TRANSFER 2012/05/24 2019/04/24 京都大学
254 2008JP073733 WO 2009/116219 世界知的所有権機関(WIPO) SUPERCONDUCTIVE ROTOR, SUPERCONDUCTIVE ROTATING MACHINE, AND SUPERCONDUCTIVE ROTATING-MACHINE SYSTEM 2012/06/14 2012/06/27 京都大学
255 2009JP056106 WO 2009/123009 世界知的所有権機関(WIPO) FLUID DISTRIBUTION DEVICE, MICRO PLANT, METHOD OF DESIGNING FLUID DISTRIBUTION DEVICE, AND METHOD OF DETECTING CLOGGING OF FLOW PASSAGE 2012/06/14 2012/06/27 京都大学
256 2009JP069405 WO 2010/055929 世界知的所有権機関(WIPO) NOVEL HSP90-TARGETED ANTI-CANCER CHIMERIC PEPTIDE 2012/06/14 2012/06/27 京都大学
257 2011JP001519 WO 2011/114719 世界知的所有権機関(WIPO) METHOD OF CULTURING PANCREATIC ISLET-LIKE TISSUES BY A TISSUE COMPLEX OF PANCREAS-DERIVED NON-ENDOCRINAL EPITHELIAL CELLS AND VASCULAR ENDOTHELIAL CELLS 2012/06/14 2013/09/17 京都大学
258 2011JP067393 WO 2012/015023 世界知的所有権機関(WIPO) METHOD FOR SCREENING ANTICANCER AGENTS 2012/06/14 2012/06/27 京都大学
259 2011JP073160 WO 2012/043891 世界知的所有権機関(WIPO) AGENT FOR TREATMENT OF EYE DISEASES 新技術説明会 2012/06/14 2012/06/27 京都大学
260 2011JP058728 WO 2011126054 世界知的所有権機関(WIPO) PHYSIOLOGICALLY ACTIVE PEPTIDES 新技術説明会 2012/07/03 2019/04/24 京都大学
261 2011JP067320 WO 2012/014994 世界知的所有権機関(WIPO) NAPHTHALENE DERIVATIVE 新技術説明会 2012/09/19 2012/09/19 京都大学
262 2012JP061204 WO 2012/169294 世界知的所有権機関(WIPO) DTM ESTIMATION METHOD, DTM ESTIMATION PROGRAM, DTM ESTIMATION DEVICE, AND METHOD FOR CREATING 3-DIMENSIONAL BUILDING MODEL, AS WELL AS REGION EXTRACTION METHOD, REGION EXTRACTION PROGRAM, AND REGION EXTRACTION DEVICE 2012/12/27 2012/12/27 京都大学
263 2011JP076004 WO 2012063923 世界知的所有権機関(WIPO) SIC CERAMIC MATERIAL AND SIC CERAMIC STRUCTURE, AND PRODUCTION METHOD FOR SAME 2013/01/11 2019/01/30 京都大学
264 2012JP069845 WO 2013/021944 世界知的所有権機関(WIPO) METAL NANOPARTICLE-PCP COMPLEX AND MANUFACTURING METHOD THEREFOR 2013/02/27 2013/02/27 京都大学
265 2012JP071902 WO 2013/031861 世界知的所有権機関(WIPO) POROUS SCAFFOLD MATERIAL, AND METHOD FOR PRODUCING SAME 2013/03/22 2013/03/22 京都大学
266 2012JP076738 WO 2013/065476 世界知的所有権機関(WIPO) MATERIAL HAVING PORES ON SURFACE, AND METHOD FOR MANUFACTURING SAME 2013/05/22 2013/05/22 京都大学
267 57497804 7471045 アメリカ合衆国 Microwave generator 実績あり 2013/07/10 2018/07/19 京都大学
268 45937006 7399814 アメリカ合衆国 Living radical polymerization method 実績あり 2013/07/10 2018/07/19 京都大学
269 2006JP325771 WO 2007/074769 世界知的所有権機関(WIPO) CASSETTE FOR FIXING, EMBEDDING AND SLICING BIOLOGICAL TISSUE AND METHOD OF HANDLING THE SAME 実績あり 2013/07/10 2013/09/17 京都大学
270 2012JP060426 WO 2012/144512 世界知的所有権機関(WIPO) USE OF MYELIN BASIC PROTEIN AS A NOVEL GENETIC FACTOR FOR RHEUMATOID ARTHRITIS 2013/07/10 2013/07/10 京都大学
271 2012JP060613 WO 2012/144560 世界知的所有権機関(WIPO) SELF-GELATINIZABLE NUCLEIC ACID 新技術説明会 2013/07/10 2013/07/10 京都大学
272 2011JP003059 WO 2011/152043 世界知的所有権機関(WIPO) TRANSGENIC REPORTER SYSTEM THAT REVEALS EXPRESSION PROFILES AND REGULATION MECHANISMS OF ALTERNATIVE SPLICING IN MAMMALIAN ORGANISMS 2013/07/10 2013/09/17 京都大学
273 90266801 06507152 アメリカ合衆国 Microwave/DC cyclotron wave converter having decreased magnetic field 2013/07/10 2013/07/10 京都大学
274 2012JP005336 WO 2013/027419 世界知的所有権機関(WIPO) LIVING RADICAL POLYMERIZATION CATALYST AND POLYMERIZATION METHOD 2013/07/10 2013/07/10 京都大学
275 2012JP008088 WO 2013/094186 世界知的所有権機関(WIPO) MOTION-TRACKING X-RAY CT IMAGE PROCESSING METHOD AND MOTION-TRACKING X-RAY CT IMAGE PROCESSING DEVICE 2013/07/16 2013/07/16 京都大学
276 2010JP060164 WO 2010/147129 世界知的所有権機関(WIPO) PORTABLE PRACTICE TOOL FOR HEART MASSAGING IN CARDIOPULMONARY RESUSCITATION 実績あり 2013/07/17 2013/09/17 京都大学
277 2013JP052704 WO 2013/118761 世界知的所有権機関(WIPO) MICROCRYSTAL STRUCTURE ANALYSIS DEVICE, MICROCRYSTAL STRUCTURE ANALYSIS METHOD, AND X-RAY SHIELD DEVICE 2013/10/17 2013/10/17 京都大学
278 2013JP054952 WO 2013/129390 世界知的所有権機関(WIPO) METHOD AND DEVICE FOR MEASUREMENT OF UNOCCUPIED ENERGY LEVELS OF SOLID 新技術説明会 2013/12/05 2013/12/05 京都大学
279 2012JP083280 WO 2013094739 世界知的所有権機関(WIPO) HELMHOLTZ RESONANCE CONTAINER FOR VOLUME MEASUREMENT, VOLUME MEASUREMENT DEVICE, AND VOLUME MEASUREMENT METHOD 新技術説明会 2014/01/08 2015/07/28 京都大学
280 201313860658 9178239 アメリカ合衆国 Proton conductor, method for manufacturing proton conductor, and fuel cell 2014/02/19 2018/07/19 京都大学
281 2009JP064131 WO 2010021265 世界知的所有権機関(WIPO) CLUSTER JET PROCESSING METHOD, SEMICONDUCTOR ELEMENT, MICROELECTROMECHANICAL ELEMENT, AND OPTICAL COMPONENT 2014/02/25 2015/07/28 京都大学
282 2011JP050774 WO 2011090034 世界知的所有権機関(WIPO) CONDUCTIVE FILM AND METHOD FOR MANUFACTURING SAME 2014/02/26 2015/07/28 京都大学
283 2006JP321597 WO 2007125619 世界知的所有権機関(WIPO) NOVEL COMPOUND HAVING GPR54 AGONISTIC ACTIVITY 2014/08/13 2015/07/28 京都大学
284 2007JP063516 WO 2008001952 世界知的所有権機関(WIPO) THIN FILM MULTILOCULAR STRUCTURE COMPRISING COLLAGEN, MATERIAL FOR TISSUE REGENERATION CONTAINING THE SAME AND METHOD FOR PRODUCING THE SAME 2014/08/13 2015/07/28 京都大学
285 2009JP058409 WO 2009139298 世界知的所有権機関(WIPO) METASTIN DERIVATIVE AND USE THEREOF 2014/08/13 2019/04/24 京都大学
286 2010JP073213 WO 2011083693 世界知的所有権機関(WIPO) SOLAR CELL, SOLAR CELL PANEL, AND DEVICE COMPRISING SOLAR CELL 2014/08/13 2015/07/28 京都大学
287 2013JP073042 WO 2014034734 世界知的所有権機関(WIPO) NUCLEAR MATERIAL DETECTION DEVICE AND NUCLEAR MATERIAL DETECTION METHOD 2014/08/13 2016/09/29 京都大学
288 2013JP072804 WO 2014034634 世界知的所有権機関(WIPO) SOLAR CELL 2014/08/13 2016/09/29 京都大学
289 2013JP072800 WO 2014034631 世界知的所有権機関(WIPO) ELECTRICITY-GENERATING LAYER OF SOLAR CELL, METHOD FOR PRODUCING SAME, AND SOLAR CELL 2014/08/13 2016/09/29 京都大学
290 2013JP073259 WO 2014034829 世界知的所有権機関(WIPO) METHOD FOR MEASURING VOLUME CHANGE RATE OF GRAPHITE MATERIAL 2014/08/13 2016/09/29 京都大学
291 2002JP013569 WO 2003056103 世界知的所有権機関(WIPO) HIGH STRENGTH MATERIAL USING CELLULOSE MICRO-FIBRIL 2014/08/14 2015/07/28 京都大学
292 2004JP012405 WO 2005022222 世界知的所有権機関(WIPO) TWO-DIMENSIONAL PHOTONIC CRYSTAL WITH AIR BRIDGE STRUCTURE AND MANUFACTURING METHOD FOR THE CRYSTAL 2014/08/20 2015/07/28 京都大学
293 58998206 7883563 アメリカ合衆国 Honeycomb structure and manufacturing method thereof, and air cleaner and water purifier containing the honeycomb structure 2014/08/20 2018/07/19 京都大学
294 2014JP054741 WO 2014133031 世界知的所有権機関(WIPO) PREPARATION METHOD FOR SOLID CATALYST AND PREPARATION METHOD FOR SILYL-SUBSTITUTED UNSATURATED COMPOUND USING SOLID CATALYST 2015/03/24 2016/09/29 京都大学
295 2014JP054326 WO 2014132919 世界知的所有権機関(WIPO) DIAGNOSTIC COMPOSITION 2015/03/24 2016/09/29 京都大学
296 2014JP059082 WO 2014157606 世界知的所有権機関(WIPO) CROSSLINKED HYDROPHOBIZED-POLYSACCHARIDE NANOGEL PARTICLES AND MANUFACTURING METHOD THEREFOR 2015/03/26 2019/04/24 京都大学
297 2014JP063363 WO 2014189051 世界知的所有権機関(WIPO) POWER PACKET GENERATION DEVICE, POWER ROUTER, AND POWER NETWORK 新技術説明会 2015/03/27 2015/07/21 京都大学
298 2014JP064452 WO 2014192927 世界知的所有権機関(WIPO) COMPUTER SIMULATION SYSTEM 2015/04/03 2016/09/29 京都大学
299 2014JP069615 WO 2015012373 世界知的所有権機関(WIPO) PCP COMPLEX 2015/04/03 2015/08/25 京都大学
300 2014JP072793 WO 2015030196 世界知的所有権機関(WIPO) ELECTROLYTIC SOLUTION 2015/04/23 2016/09/29 京都大学

(3/49ページ)

PAGE TOP